Location: Three Oaks Observatory
(31.1535°N, 83.5955°W)
Time: 10:37:49
(UTC-04:00)

XW-2B - Visible Passes

Search period start: 20 October 2019 00:00
Search period end: 30 October 2019 00:00
Orbit: 508 x 528 km, 97.5° (Epoch: 20 October)

Date Brightness Start Highest point End Pass type
(mag) Time Alt. Az. Time Alt. Az. Time Alt. Az.
20 Oct ? 07:00:44 10° NNE 07:04:06 32° E 07:07:28 10° SSE visible
21 Oct ? 06:47:08 10° NE 06:50:00 21° E 06:52:51 10° SSE visible
22 Oct ? 06:33:56 10° ENE 06:35:52 14° E 06:37:47 10° SE visible
24 Oct ? 19:48:48 10° SW 19:51:06 16° W 19:53:24 10° WNW visible
25 Oct ? 19:33:54 10° SSW 19:36:58 24° W 19:40:02 10° NW visible
26 Oct ? 07:10:11 10° NNE 07:13:46 45° E 07:17:21 10° S visible
26 Oct ? 19:19:22 10° SSW 19:22:51 37° W 19:26:21 10° NNW visible
27 Oct ? 06:56:25 10° NE 06:59:41 28° E 07:02:56 10° SSE visible
28 Oct ? 06:42:54 10° NE 06:45:33 18° E 06:48:12 10° SE visible
29 Oct ? 06:29:56 10° ENE 06:31:24 12° E 06:32:52 10° ESE visible
